Location: Albuquerque Trailhead
(34.7934°N, 106.3736°W)
Time: 12:19:18
(UTC+00:00)

Cosmos 1833 Rocket - Pass Details

Date: 20 June 2021
Orbit: 832 x 840 km, 71.0° (Epoch: 30 July)

Event Time Altitude Azimuth Distance (km) Brightness Sun altitude
Exits shadow 09:26:53 15° 145° (SE) 2,104 4.6 -23.0°
Maximum altitude 09:30:08 25° 102° (ESE) 1,639 4.4 -22.6°
Drops below altitude 10° 09:34:36 10° 49° (NE) 2,457 6.2 -22.1°
Sets 09:37:26 0° 36° (NE) 3,396 7.4 -21.7°
